Regional Weather Roundup
Issued by NWS

Home | Current Version | Previous Version | Graphics & Text | Print | Product List | Glossary On
Versions: 1 2 3 4 5 6 7 8 9 10 11 12 13 14 15 16 17 18 19 20 21 22 23 24 25 26 27 28 29 30 31 32 33 34 35 36 37 38 39 40 41 42 43 44 45 46 47 48 49 50
000
ASUS43 KLMK 220802
RWRKY
KENTUCKY REGIONAL WEATHER ROUNDUP
NATIONAL WEATHER SERVICE LOUISVILLE KY
400 AM EDT SAT JUL 22 2017

NOTE "FAIR" INDICATES FEW OR NO CLOUDS BELOW 12,000 FEET
WITH NO SIGNIFICANT WEATHER AND/OR OBSTRUCTIONS TO VISIBILITY.

KYZ001>023-026-027-061>063-070>075-220900-
WESTERN AND SOUTH CENTRAL KENTUCKY

CITY           SKY/WX    TMP DP  RH WIND       PRES   REMARKS
PADUCAH        CLEAR     81  74  79 SW6       29.90S
HENDERSON      CLEAR     78  75  90 CALM      29.91R
OWENSBORO      CLEAR     78  76  93 S3        29.91R
HOPKINSVILLE   CLEAR     79  76  89 CALM      29.93F
BOWLING GREEN  CLEAR     81  77  88 SW3       29.94F
GLASGOW        NOT AVBL
$$

KYZ024-025-028>034-038-045-046-053-220900-
NORTH CENTRAL KENTUCKY

CITY           SKY/WX    TMP DP  RH WIND       PRES   REMARKS
LOUISVILLE/SDF PTCLDY    83  75  77 SW5       29.91R HX  90
LOUISVILLE/LOU PTCLDY    82  77  84 SW6       29.92R HX  90
FORT KNOX      CLEAR     77  74  92 S3        29.92R
$$

KYZ035>037-039>044-047>052-055>060-089>105-220900-
NORTHEAST KENTUCKY

CITY           SKY/WX    TMP DP  RH WIND       PRES   REMARKS
LEXINGTON      CLEAR     79  71  76 SW6       29.95S
COVINGTON      MOCLDY    77  75  93 S7        29.91F
FRANKFORT      CLEAR     79  72  79 SW7       29.93R
$$

KYZ054-064>069-076>088-106>120-220900-
SOUTHEAST KENTUCKY

CITY           SKY/WX    TMP DP  RH WIND       PRES   REMARKS
JACKSON        CLEAR     76  72  87 CALM      29.99F
LONDON         CLEAR     73  71  93 CALM      29.98F FOG
SOMERSET       CLEAR     72  72 100 CALM      29.98F
MIDDLESBORO    CLEAR     71  71 100 CALM      30.01F
MONTICELLO     SUNNY     72  71  97 NE9       29.99F
$$





USA.gov is the U.S. government's official web portal to all federal, state and local government web resources and services.